When you browse on this site, cookies collect data to enhance your experience and personalize the content and advertising you see.
Visit our Privacy Policy to learn more. By continuing to use the site, you agree to this use of cookies and data.
  • In Deutschland
  • Länderverzeichnis
  • Für 7 Tage
  • Wassertemperatur
  • Wetterkarte
  • Widgets
  • user-avatar
    Anmelden

    Stündliche Wetter Elbasan

    Heute, 19 August, Montag

    Zeit Temperatur Niederschläge Wind Luftdruck Luftfeuchtigkeit
    00:00 +22°C° 0 mm 1 m/S 736 mmHg 48%
    01:00 +22°C° 0 mm 1 m/S 736 mmHg 47%
    02:00 +22°C° 0 mm 1 m/S 736 mmHg 47%
    03:00 +22°C° 0 mm 1 m/S 736 mmHg 46%
    04:00 +21°C° 0 mm 1 m/S 735 mmHg 46%
    05:00 +23°C° 0 mm 1 m/S 736 mmHg 41%
    06:00 +25°C° 0 mm 1 m/S 736 mmHg 37%
    07:00 +27°C° 0 mm 1 m/S 736 mmHg 32%
    08:00 +30°C° 0 mm 1 m/S 736 mmHg 28%
    09:00 +32°C° 0 mm 1 m/S 736 mmHg 24%
    10:00 +35°C° 0 mm 2 m/S 737 mmHg 21%
    11:00 +35°C° 0 mm 3 m/S 737 mmHg 21%
    12:00 +36°C° 0 mm 3 m/S 736 mmHg 21%
    13:00 +36°C° 0 mm 4 m/S 736 mmHg 22%
    14:00 +36°C° 0 mm 4 m/S 736 mmHg 24%
    15:00 +35°C° 0 mm 3 m/S 735 mmHg 26%
    16:00 +34°C° 0 mm 3 m/S 735 mmHg 28%
    17:00 +31°C° 0 mm 2 m/S 735 mmHg 35%
    18:00 +28°C° 0 mm 1 m/S 735 mmHg 43%
    19:00 +25°C° 0 mm 1 m/S 735 mmHg 50%
    20:00 +25°C° 0 mm 1 m/S 736 mmHg 51%
    21:00 +24°C° 0 mm 1 m/S 736 mmHg 51%
    22:00 +24°C° 0 mm 1 m/S 736 mmHg 52%
    23:00 +24°C° 0 mm 1 m/S 736 mmHg 52%

    Morgen, 20 August, Dienstag

    Zeit Temperatur Niederschläge Wind Luftdruck Luftfeuchtigkeit
    00:00 +23°C° 0 mm 1 m/S 736 mmHg 52%
    01:00 +23°C° 0 mm 1 m/S 736 mmHg 52%
    02:00 +23°C° 0 mm 1 m/S 736 mmHg 52%
    03:00 +23°C° 0 mm 1 m/S 736 mmHg 52%
    04:00 +23°C° 0 mm 1 m/S 736 mmHg 52%
    05:00 +24°C° 0 mm 1 m/S 736 mmHg 48%
    06:00 +26°C° 0 mm 1 m/S 737 mmHg 43%
    07:00 +28°C° 0 mm 1 m/S 737 mmHg 38%
    08:00 +31°C° 0 mm 1 m/S 737 mmHg 33%
    09:00 +33°C° 0 mm 1 m/S 737 mmHg 28%
    10:00 +36°C° 0 mm 2 m/S 737 mmHg 24%
    11:00 +37°C° 0 mm 2 m/S 737 mmHg 23%
    12:00 +38°C° 0 mm 3 m/S 737 mmHg 23%
    13:00 +38°C° 0 mm 4 m/S 737 mmHg 22%
    14:00 +37°C° 0 mm 4 m/S 736 mmHg 25%
    15:00 +36°C° 0 mm 3 m/S 736 mmHg 27%
    16:00 +35°C° 0 mm 3 m/S 736 mmHg 30%
    17:00 +31°C° 0 mm 2 m/S 736 mmHg 38%
    18:00 +29°C° 0 mm 1 m/S 736 mmHg 47%
    19:00 +26°C° 0 mm 1 m/S 736 mmHg 55%
    20:00 +26°C° 0 mm 1 m/S 736 mmHg 55%
    21:00 +25°C° 0 mm 1 m/S 736 mmHg 55%
    22:00 +25°C° 0 mm 1 m/S 737 mmHg 56%
    23:00 +25°C° 0 mm 1 m/S 736 mmHg 55%

    übermorgen, 21 August, Mittwoch

    Zeit Temperatur Niederschläge Wind Luftdruck Luftfeuchtigkeit
    00:00 +24°C° 0 mm 1 m/S 736 mmHg 54%
    01:00 +24°C° 0 mm 1 m/S 736 mmHg 54%
    02:00 +24°C° 0 mm 1 m/S 736 mmHg 54%
    03:00 +24°C° 0 mm 1 m/S 736 mmHg 54%
    04:00 +23°C° 0 mm 1 m/S 736 mmHg 53%
    05:00 +25°C° 0 mm 1 m/S 736 mmHg 48%
    06:00 +27°C° 0 mm 1 m/S 737 mmHg 43%
    07:00 +29°C° 0 mm 1 m/S 737 mmHg 38%
    08:00 +31°C° 0 mm 1 m/S 737 mmHg 33%
    09:00 +33°C° 0 mm 1 m/S 737 mmHg 29%
    10:00 +37°C° 0 mm 2 m/S 737 mmHg 25%
    11:00 +37°C° 0 mm 3 m/S 736 mmHg 24%
    12:00 +37°C° 0 mm 4 m/S 736 mmHg 24%
    13:00 +39°C° 0 mm 5 m/S 736 mmHg 24%
    14:00 +37°C° 0 mm 4 m/S 735 mmHg 26%
    15:00 +36°C° 0 mm 4 m/S 735 mmHg 29%
    16:00 +35°C° 0 mm 3 m/S 735 mmHg 31%
    17:00 +32°C° 0 mm 2 m/S 735 mmHg 39%
    18:00 +29°C° 0 mm 1 m/S 735 mmHg 47%
    19:00 +26°C° 0 mm 1 m/S 735 mmHg 55%
    20:00 +26°C° 0 mm 1 m/S 735 mmHg 55%
    21:00 +25°C° 0 mm 1 m/S 735 mmHg 56%
    22:00 +25°C° 0 mm 1 m/S 735 mmHg 57%
    23:00 +25°C° 0 mm 1 m/S 735 mmHg 55%

    22 August, Donnerstag

    Zeit Temperatur Niederschläge Wind Luftdruck Luftfeuchtigkeit
    00:00 +25°C° 0 mm 1 m/S 735 mmHg 54%
    01:00 +24°C° 0 mm 1 m/S 735 mmHg 52%
    02:00 +24°C° 0 mm 1 m/S 735 mmHg 51%
    03:00 +24°C° 0 mm 1 m/S 735 mmHg 50%
    04:00 +24°C° 0 mm 1 m/S 735 mmHg 49%
    05:00 +25°C° 0 mm 1 m/S 735 mmHg 45%
    06:00 +27°C° 0 mm 1 m/S 736 mmHg 40%
    07:00 +29°C° 0 mm 1 m/S 736 mmHg 35%
    08:00 +31°C° 0 mm 1 m/S 736 mmHg 30%
    09:00 +34°C° 0 mm 1 m/S 736 mmHg 26%
    10:00 +37°C° 0 mm 2 m/S 736 mmHg 22%
    11:00 +38°C° 0 mm 2 m/S 736 mmHg 21%
    12:00 +38°C° 0 mm 3 m/S 735 mmHg 20%
    13:00 +40°C° 0 mm 4 m/S 735 mmHg 20%
    14:00 +38°C° 0 mm 4 m/S 735 mmHg 22%
    15:00 +37°C° 0 mm 3 m/S 735 mmHg 25%
    16:00 +36°C° 0 mm 3 m/S 734 mmHg 28%
    17:00 +32°C° 0 mm 2 m/S 734 mmHg 37%
    18:00 +29°C° 0 mm 1 m/S 734 mmHg 46%
    19:00 +24°C° 0 mm 0 m/S 734 mmHg 56%
    20:00 +26°C° 0 mm 1 m/S 735 mmHg 55%
    21:00 +26°C° 0 mm 1 m/S 735 mmHg 54%
    22:00 +25°C° 0 mm 1 m/S 735 mmHg 54%
    23:00 +25°C° 0 mm 1 m/S 735 mmHg 53%

    23 August, Freitag

    Zeit Temperatur Niederschläge Wind Luftdruck Luftfeuchtigkeit
    00:00 +25°C° 0 mm 1 m/S 735 mmHg 52%
    01:00 +25°C° 0 mm 1 m/S 735 mmHg 51%
    02:00 +24°C° 0 mm 1 m/S 735 mmHg 51%
    03:00 +24°C° 0 mm 1 m/S 734 mmHg 52%
    04:00 +24°C° 0 mm 2 m/S 734 mmHg 52%
    05:00 +26°C° 0 mm 1 m/S 735 mmHg 47%
    06:00 +28°C° 0 mm 1 m/S 735 mmHg 41%
    07:00 +30°C° 0 mm 1 m/S 735 mmHg 36%
    08:00 +32°C° 0 mm 1 m/S 735 mmHg 31%
    09:00 +36°C° 0 mm 2 m/S 735 mmHg 26%
    10:00 +38°C° 0 mm 2 m/S 735 mmHg 21%
    11:00 +38°C° 0 mm 2 m/S 735 mmHg 23%
    12:00 +37°C° 0 mm 3 m/S 735 mmHg 25%
    13:00 +36°C° 0 mm 3 m/S 734 mmHg 26%
    14:00 +36°C° 0 mm 3 m/S 734 mmHg 29%
    15:00 +35°C° 0 mm 2 m/S 734 mmHg 32%
    16:00 +34°C° 0 mm 2 m/S 734 mmHg 35%
    17:00 +31°C° 0 mm 2 m/S 734 mmHg 40%
    18:00 +30°C° 0 mm 1 m/S 734 mmHg 45%
    19:00 +28°C° 0 mm 1 m/S 734 mmHg 50%
    20:00 +27°C° 0.2 mm 1 m/S 734 mmHg 51%
    21:00 +27°C° 0.2 mm 1 m/S 735 mmHg 53%
    22:00 +27°C° 0.2 mm 1 m/S 735 mmHg 54%
    23:00 +26°C° 0 mm 1 m/S 735 mmHg 55%

    24 August, Samstag

    Zeit Temperatur Niederschläge Wind Luftdruck Luftfeuchtigkeit
    00:00 +26°C° 0 mm 1 m/S 735 mmHg 56%
    01:00 +26°C° 0 mm 1 m/S 734 mmHg 56%
    02:00 +26°C° 0 mm 2 m/S 734 mmHg 56%
    03:00 +25°C° 0 mm 2 m/S 734 mmHg 55%
    04:00 +25°C° 0 mm 2 m/S 734 mmHg 55%
    05:00 +27°C° 0 mm 2 m/S 734 mmHg 50%
    06:00 +28°C° 0 mm 2 m/S 734 mmHg 45%
    07:00 +30°C° 0 mm 2 m/S 734 mmHg 40%
    08:00 +32°C° 0 mm 2 m/S 735 mmHg 33%
    09:00 +36°C° 0 mm 3 m/S 735 mmHg 26%
    10:00 +38°C° 0 mm 3 m/S 735 mmHg 19%
    11:00 +38°C° 0 mm 4 m/S 735 mmHg 18%
    12:00 +38°C° 0 mm 4 m/S 735 mmHg 18%
    13:00 +40°C° 0 mm 4 m/S 734 mmHg 17%
    14:00 +38°C° 0 mm 4 m/S 734 mmHg 18%
    15:00 +38°C° 0 mm 4 m/S 734 mmHg 20%
    16:00 +37°C° 0 mm 4 m/S 734 mmHg 21%
    17:00 +35°C° 0 mm 3 m/S 734 mmHg 26%
    18:00 +33°C° 0 mm 3 m/S 734 mmHg 31%
    19:00 +30°C° 0 mm 2 m/S 734 mmHg 36%
    20:00 +29°C° 0 mm 2 m/S 734 mmHg 38%
    21:00 +28°C° 0 mm 2 m/S 734 mmHg 40%
    22:00 +27°C° 0 mm 1 m/S 735 mmHg 43%
    23:00 +26°C° 0 mm 2 m/S 734 mmHg 43%
    Mehr zeigen